Flag for USA

Past Weather in Durham, North Carolina, USA — Yesterday and Last 2 Weeks

Now
80 °F

Overcast.


Feels Like: 84 °F
Forecast: 85 / 71 °F
Wind: 6 mph from Southeast

Location: Raleigh-Durham International Airport

Current Time: Aug 7, 2020 at 9:01:08 pm

Latest Report: Aug 7, 2020 at 7:51 pm


Visibility: 10 mi

Pressure: 30.06 "Hg

Humidity: 79%

Dew Point: 73 °F

Location of DurhamLocation

Past Weather in Durham — Graph

°F

Durham Temperature Yesterday

Maximum temperature yesterday: 86 °F (at 1:51 pm)
Minimum temperature yesterday: 73 °F (at 4:21 am)
Average temperature yesterday: 77 °F

High & Low Weather Summary for the Past Weeks

 TemperatureHumidityPressure
High96 °F (Jul 27, 3:51 pm)97% (Jul 23, 8:51 pm)30.17 "Hg (Jul 23, 8:51 pm)
Low69 °F (Aug 4, 6:35 am)46% (Jul 27, 1:51 pm)29.67 "Hg (Aug 4, 3:51 am)
Average80 °F81%29.99 "Hg
* Reported Jul 23 6:51 pm — Aug 7 6:51 pm, Durham. Weather by CustomWeather, © 2020

Note: Actual official high and low records may vary slightly from our data, if they occured in-between our weather recording intervals... More about our weather records

Durham Weather History for the Previous 24 Hours

Scroll right to see more
 ConditionsComfort  
Time TempWeatherWind HumidityBarometerVisibility
6:51 pm
Fri, Aug 7
82 °FPartly sunny.7 mph70%30.04 "Hg10 mi
5:51 pm87 °FPartly sunny.9 mph65%30.03 "Hg10 mi
4:51 pm89 °FBroken clouds.No wind57%30.02 "Hg10 mi
3:51 pm87 °FPartly sunny.5 mph63%30.03 "Hg10 mi
2:51 pm86 °FPartly sunny.3 mph65%30.06 "Hg10 mi
1:51 pm85 °FPartly sunny.6 mph68%30.07 "Hg10 mi
12:51 pm84 °FBroken clouds.6 mph70%30.09 "Hg10 mi
11:51 am84 °FBroken clouds.5 mph70%30.10 "Hg10 mi
10:51 am80 °FBroken clouds.6 mph79%30.10 "Hg10 mi
9:51 am78 °FMostly cloudy.6 mph84%30.10 "Hg10 mi
8:51 am77 °FBroken clouds.3 mph88%30.08 "Hg10 mi
7:51 am75 °FPartly sunny.5 mph90%30.07 "Hg10 mi
6:51 am74 °FBroken clouds.5 mph94%30.07 "Hg9 mi
6:21 am74 °FPartly cloudy.5 mph94%30.08 "Hg9 mi
5:51 am74 °FPassing clouds.3 mph94%30.06 "Hg10 mi
4:51 am74 °FPassing clouds.5 mph97%30.04 "Hg10 mi
3:51 am74 °FPassing clouds.6 mph97%30.04 "Hg10 mi
2:51 am74 °FMostly cloudy.No wind94%30.05 "Hg10 mi
1:51 am74 °FPassing clouds.No wind94%30.06 "Hg10 mi
12:51 am72 °FPassing clouds.No wind97%30.06 "Hg10 mi
12:43 am72 °FPassing clouds.3 mph97%30.08 "Hg10 mi
11:51 pm
Thu, Aug 6
73 °FPassing clouds.5 mph94%30.07 "Hg10 mi
11:12 pm73 °FPassing clouds.No wind94%30.09 "Hg10 mi
10:51 pm73 °FMostly cloudy.No wind94%30.08 "Hg10 mi
9:51 pm74 °FOvercast.No wind94%30.05 "Hg10 mi
Weather by CustomWeather, © 2020

See weather overview